Weather History for La Paz, Mexico

Change the Weather History Date:

Monday, April 22, 2013

  Actual Average Record
Temperature  
Mean Temperature 79 °F -  
Max Temperature 98 °F 90 °F 103 °F (2012)
Min Temperature 60 °F 59 °F 55 °F (2011)
Cooling Degree Days 14    
Growing Degree Days 29 (Base 50)    
Moisture  
Dew Point 35 °F    
Average Humidity 23    
Maximum Humidity 49    
Minimum Humidity 5    
Precipitation  
Precipitation 0.00 in - - ()
Sea Level Pressure  
Sea Level Pressure 29.94 in    
Wind  
Wind Speed 7 mph ()    
Max Wind Speed 14 mph    
Max Gust Speed -    
Visibility 9.7 miles    
Events      
Averages and records for this station are not official NWS values.
T = Trace of Precipitation, MM = Missing Value Source: Averaged Metar Reports

Daily Weather History Graph

Daily Weather History Graph

Search for Another Location

Airport:

Trip Planner

Search our weather history database for the weather conditions in past years. The results will help you decide how hot, cold, wet, or windy it might be!

Date:

Astronomy

Apr. 22, 2013 Rise Set
Actual Time 6:53 AM MDT 7:46 PM MDT
Civil Twilight 6:30 AM MDT 8:09 PM MDT
Nautical Twilight 6:02 AM MDT 8:37 PM MDT
Astronomical Twilight 5:34 AM MDT 9:05 PM MDT
Moon 4:56 PM MDT (4/22) 4:28 AM MDT (4/22)
Length of Visible Light 13h 39m
Length of Day
12h 52m
Waxing Gibbous, 88% of the Moon is Illuminated
Apr 22
Waxing Gibbous
Apr 25
Full
May 2
Last Quarter
May 9
New
May 17
First Quarter

Hourly Weather History & Observations

Time (MDT) Temp. Dew Point Humidity Pressure Visibility Wind Dir Wind Speed Gust Speed Precip Events Conditions
2:45 AM 67 °F 36 °F 21% 29.94 in 2 mi South 6.7 mph - -   Partly Cloudy
5:50 AM 61 °F 39 °F 32% 29.93 in 2 mi South 2.2 mph - -  
6:09 AM 57.2 °F 28.4 °F 33% 29.99 in 10.0 mi South 9.2 mph - N/A   Partly Cloudy
6:42 AM 57.2 °F 26.6 °F 31% 29.95 in 10.0 mi South 9.2 mph - N/A   Partly Cloudy
7:46 AM 60.8 °F 26.6 °F 27% 29.97 in 10.0 mi South 6.9 mph - N/A   Scattered Clouds
8:42 AM 66.2 °F 30.2 °F 26% 30.04 in 10.0 mi South 8.1 mph - N/A   Scattered Clouds
8:50 AM 75 °F 39 °F 17% 29.98 in 16 mi South 2.2 mph - -   Clear
9:40 AM 77.0 °F 32.0 °F 19% 29.98 in 10.0 mi South 6.9 mph - N/A   Scattered Clouds
10:41 AM 86.0 °F 15.8 °F 7% 29.98 in 10.0 mi Calm Calm - N/A   Scattered Clouds
11:42 AM 87.8 °F 6.8 °F 5% 30.02 in 10.0 mi NW 8.1 mph - N/A   Scattered Clouds
11:50 AM 91 °F 31 °F 6% 29.96 in 19 mi NW 6.7 mph - -   Clear
12:41 PM 89.6 °F 51.8 °F 27% 29.94 in 10.0 mi NW 9.2 mph - N/A   Mostly Cloudy
1:42 PM 89.6 °F 21.2 °F 8% 29.92 in 10.0 mi North 12.7 mph - N/A   Mostly Cloudy
2:50 PM 96 °F 43 °F 9% 29.89 in 19 mi NNW 8.9 mph - -   Clear
2:52 PM 91.4 °F 48.2 °F 23% 30.01 in 10.0 mi North 9.2 mph - N/A   Mostly Cloudy
3:45 PM 93.2 °F 19.4 °F 7% 29.86 in 10.0 mi North 13.8 mph - N/A   Mostly Cloudy
4:45 PM 93.2 °F 17.6 °F 6% 29.85 in 10.0 mi NW 11.5 mph - N/A   Mostly Cloudy
5:42 PM 89.6 °F 26.6 °F 10% 29.98 in 10.0 mi SSW 13.8 mph - N/A   Mostly Cloudy
5:50 PM 94 °F 42 °F 9% 29.86 in 19 mi South 11.2 mph - -   Partly Cloudy
6:43 PM 78.8 °F 41.0 °F 26% 29.88 in 10.0 mi South 13.8 mph - N/A   Mostly Cloudy
7:48 PM 73.4 °F 42.8 °F 33% 29.91 in 10.0 mi South 13.8 mph - N/A   Mostly Cloudy
8:40 PM 71.6 °F 46.4 °F 41% 30.04 in 10.0 mi South 11.5 mph - N/A   Mostly Cloudy
8:50 PM 74 °F 49 °F 30% 29.91 in 2 mi South 11.2 mph - -   Clear
9:00 PM 74 °F 49 °F 30% 29.91 in 2 mi South 11.2 mph - -  
10:03 PM 69.8 °F 48.2 °F 46% 29.94 in 10.0 mi South 11.5 mph - N/A   Mostly Cloudy
10:40 PM 68.0 °F 48.2 °F 49% 29.95 in 10.0 mi South 9.2 mph - N/A   Mostly Cloudy
11:45 PM 70 °F 49 °F 35% 29.91 in 2 mi South 6.7 mph - -   Mostly Cloudy